Weather History for Dunkirk, NY

Change the Weather History Date:

Tuesday, November 20, 2012

  Actual Average Record
Temperature  
Mean Temperature 39 °F -  
Max Temperature 48 °F 48 °F 73 °F (1991)
Min Temperature 30 °F 33 °F 18 °F (1984)
Degree Days  
Heating Degree Days 26    
Moisture  
Dew Point 34 °F    
Average Humidity 82    
Maximum Humidity 93    
Minimum Humidity 59    
Precipitation  
Precipitation 0.00 in - - ()
Sea Level Pressure  
Sea Level Pressure 30.18 in    
Wind  
Wind Speed 1 mph (WNW)    
Max Wind Speed 7 mph    
Max Gust Speed -    
Visibility 9 miles    
Events      
Averages and records for this station are not official NWS values.
T = Trace of Precipitation, MM = Missing Value Source: NWS Daily Summary

Daily Weather History Graph

Daily Weather History Graph

Search for Another Location

Airport:

Trip Planner

Search our weather history database for the weather conditions in past years. The results will help you decide how hot, cold, wet, or windy it might be!

Date:

Astronomy

Nov. 20, 2012 Rise Set
Actual Time 7:14 AM EST 4:50 PM EST
Civil Twilight 6:44 AM EST 5:21 PM EST
Nautical Twilight 6:09 AM EST 5:55 PM EST
Astronomical Twilight 5:36 AM EST 6:28 PM EST
Moon 12:44 PM EST (11/20) No Moon Set
Length of Visible Light 10h 36m
Length of Day
9h 35m
Waxing Crescent, 51% of the Moon is Illuminated
Nov 20
Waxing Crescent
Nov 28
Full
Dec 6
Last Quarter
Dec 13
New
Dec 20
First Quarter

Hourly Weather History & Observations

Time (EST) Temp. Windchill Dew Point Humidity Pressure Visibility Wind Dir Wind Speed Gust Speed Precip Events Conditions
12:53 AM 34.0 °F - 32.0 °F 92% 30.22 in 10.0 mi Calm Calm - N/A   Clear
1:53 AM 35.1 °F - 32.0 °F 89% 30.21 in 10.0 mi Calm Calm - N/A   Clear
2:53 AM 35.1 °F 32.2 °F 32.0 °F 89% 30.21 in 10.0 mi SW 3.5 mph - N/A   Clear
3:53 AM 37.0 °F - 30.9 °F 79% 30.19 in 10.0 mi Calm Calm - N/A   Clear
4:53 AM 35.1 °F - 30.9 °F 85% 30.20 in 10.0 mi Calm Calm - N/A   Clear
5:53 AM 34.0 °F - 30.9 °F 89% 30.19 in 10.0 mi Calm Calm - N/A   Clear
6:53 AM 33.1 °F 30.0 °F 30.9 °F 92% 30.19 in 10.0 mi SSE 3.5 mph - N/A   Clear
7:53 AM 33.1 °F - 30.9 °F 92% 30.20 in 10.0 mi Calm Calm - N/A   Clear
8:53 AM 37.9 °F - 34.0 °F 86% 30.21 in 10.0 mi Calm Calm - N/A   Clear
9:53 AM 45.0 °F - 35.1 °F 68% 30.19 in 10.0 mi Calm Calm - N/A   Clear
10:53 AM 48.9 °F - 35.1 °F 59% 30.18 in 10.0 mi Calm Calm - N/A   Clear
11:53 AM 48.0 °F - 37.0 °F 66% 30.16 in 10.0 mi North 5.8 mph - N/A   Clear
12:53 PM 48.9 °F - 37.9 °F 66% 30.14 in 10.0 mi North 6.9 mph - N/A   Clear
1:53 PM 48.9 °F - 39.0 °F 69% 30.13 in 10.0 mi NNW 5.8 mph - N/A   Clear
2:53 PM 46.9 °F - 37.9 °F 71% 30.12 in 10.0 mi NNW 5.8 mph - N/A   Clear
3:53 PM 46.9 °F - 37.9 °F 71% 30.13 in 10.0 mi Calm Calm - N/A   Clear
4:53 PM 46.0 °F - 37.9 °F 73% 30.14 in 10.0 mi Calm Calm - N/A   Clear
5:53 PM 39.9 °F - 36.0 °F 86% 30.16 in 10.0 mi Calm Calm - N/A   Clear
6:53 PM 36.0 °F 32.1 °F 34.0 °F 93% 30.17 in 7.0 mi South 4.6 mph - N/A   Clear
7:53 PM 37.0 °F - 34.0 °F 89% 30.18 in 9.0 mi Calm Calm - N/A   Clear
8:53 PM 34.0 °F 31.0 °F 32.0 °F 92% 30.18 in 7.0 mi South 3.5 mph - N/A   Clear
9:53 PM 32.0 °F - 30.0 °F 92% 30.17 in 6.0 mi Calm Calm - N/A   Clear
10:53 PM 30.9 °F - 28.9 °F 92% 30.17 in 5.0 mi Calm Calm - N/A   Clear
11:53 PM 30.0 °F - 28.0 °F 92% 30.17 in 4.0 mi Calm Calm - N/A   Clear